When you browse on this site, cookies collect data to enhance your experience and personalize the content and advertising you see.
Visit our Privacy Policy to learn more. By continuing to use the site, you agree to this use of cookies and data.
  • In Deutschland
  • Länderverzeichnis
  • Für 7 Tage
  • Wassertemperatur
  • Satellitenkarten
  • Wetterkarte
  • Widgets
  • user-avatar
    Anmelden

    Stündliche Wetter Mykonos

    Heute, 23 Januar, Mittwoch

    Zeit Temperatur Niederschläge Wind Luftdruck Luftfeuchtigkeit
    00:00 +15°C° 0 mm 7 m/S 759 mmHg 73%
    01:00 +15°C° 0 mm 7 m/S 758 mmHg 73%
    02:00 +15°C° 0 mm 7 m/S 758 mmHg 73%
    03:00 +15°C° 0 mm 7 m/S 758 mmHg 74%
    04:00 +15°C° 0 mm 7 m/S 757 mmHg 75%
    05:00 +15°C° 0 mm 7 m/S 757 mmHg 75%
    06:00 +15°C° 0 mm 6 m/S 757 mmHg 75%
    07:00 +15°C° 0 mm 5 m/S 757 mmHg 75%
    08:00 +15°C° 0 mm 5 m/S 757 mmHg 75%
    09:00 +16°C° 0.1 mm 5 m/S 757 mmHg 75%
    10:00 +16°C° 0.1 mm 5 m/S 757 mmHg 74%
    11:00 +17°C° 0.1 mm 4 m/S 757 mmHg 74%
    12:00 +16°C° 0.3 mm 5 m/S 756 mmHg 75%
    13:00 +16°C° 0.3 mm 6 m/S 755 mmHg 76%
    14:00 +16°C° 0.3 mm 7 m/S 754 mmHg 77%
    15:00 +16°C° 0.2 mm 8 m/S 754 mmHg 76%
    16:00 +16°C° 0.2 mm 10 m/S 753 mmHg 76%
    17:00 +16°C° 0.2 mm 11 m/S 753 mmHg 76%
    18:00 +15°C° 0.4 mm 12 m/S 752 mmHg 75%
    19:00 +14°C° 0.4 mm 14 m/S 752 mmHg 75%
    20:00 +14°C° 0.4 mm 15 m/S 751 mmHg 74%
    21:00 +14°C° 1 mm 15 m/S 751 mmHg 74%
    22:00 +14°C° 1 mm 15 m/S 750 mmHg 74%
    23:00 +14°C° 1 mm 15 m/S 750 mmHg 75%

    Morgen, 24 Januar, Donnerstag

    Zeit Temperatur Niederschläge Wind Luftdruck Luftfeuchtigkeit
    00:00 +14°C° 0.9 mm 14 m/S 749 mmHg 73%
    01:00 +15°C° 0.9 mm 14 m/S 748 mmHg 72%
    02:00 +15°C° 0.9 mm 14 m/S 747 mmHg 71%
    03:00 +15°C° 0.2 mm 13 m/S 746 mmHg 71%
    04:00 +14°C° 0.2 mm 12 m/S 746 mmHg 71%
    05:00 +14°C° 0.2 mm 11 m/S 745 mmHg 71%
    06:00 +14°C° 0.5 mm 12 m/S 745 mmHg 72%
    07:00 +14°C° 0.5 mm 13 m/S 745 mmHg 74%
    08:00 +13°C° 0.5 mm 13 m/S 745 mmHg 75%
    09:00 +13°C° 0 mm 13 m/S 746 mmHg 72%
    10:00 +14°C° 0 mm 13 m/S 746 mmHg 68%
    11:00 +14°C° 0 mm 14 m/S 747 mmHg 64%
    12:00 +14°C° 0 mm 13 m/S 747 mmHg 65%
    13:00 +14°C° 0 mm 12 m/S 747 mmHg 67%
    14:00 +13°C° 0 mm 12 m/S 747 mmHg 68%
    15:00 +13°C° 0.2 mm 12 m/S 747 mmHg 68%
    16:00 +13°C° 0.2 mm 12 m/S 747 mmHg 69%
    17:00 +13°C° 0.2 mm 12 m/S 748 mmHg 69%
    18:00 +13°C° 0.1 mm 11 m/S 748 mmHg 68%
    19:00 +14°C° 0.1 mm 11 m/S 749 mmHg 68%
    20:00 +14°C° 0.1 mm 11 m/S 749 mmHg 68%
    21:00 +14°C° 0.2 mm 11 m/S 749 mmHg 68%
    22:00 +14°C° 0.2 mm 10 m/S 749 mmHg 68%
    23:00 +14°C° 0.2 mm 10 m/S 749 mmHg 68%

    übermorgen, 25 Januar, Freitag

    Zeit Temperatur Niederschläge Wind Luftdruck Luftfeuchtigkeit
    00:00 +14°C° 0.3 mm 11 m/S 749 mmHg 69%
    01:00 +14°C° 0.3 mm 11 m/S 749 mmHg 69%
    02:00 +14°C° 0.3 mm 12 m/S 749 mmHg 70%
    03:00 +14°C° 0.8 mm 12 m/S 748 mmHg 71%
    04:00 +14°C° 0.8 mm 12 m/S 748 mmHg 72%
    05:00 +13°C° 0.8 mm 12 m/S 748 mmHg 74%
    06:00 +13°C° 1.3 mm 12 m/S 748 mmHg 74%
    07:00 +13°C° 1.3 mm 11 m/S 748 mmHg 74%
    08:00 +13°C° 1.3 mm 11 m/S 748 mmHg 74%
    09:00 +13°C° 0.7 mm 11 m/S 747 mmHg 73%
    10:00 +14°C° 0.7 mm 11 m/S 747 mmHg 71%
    11:00 +14°C° 0.7 mm 12 m/S 747 mmHg 69%
    12:00 +14°C° 0.5 mm 13 m/S 746 mmHg 69%
    13:00 +14°C° 0.5 mm 14 m/S 746 mmHg 70%
    14:00 +14°C° 0.5 mm 15 m/S 745 mmHg 70%
    15:00 +13°C° 2.4 mm 14 m/S 745 mmHg 72%
    16:00 +13°C° 2.4 mm 14 m/S 744 mmHg 74%
    17:00 +12°C° 2.4 mm 13 m/S 744 mmHg 77%
    18:00 +13°C° 0.2 mm 13 m/S 745 mmHg 73%
    19:00 +13°C° 0.2 mm 12 m/S 745 mmHg 69%
    20:00 +14°C° 0.2 mm 12 m/S 745 mmHg 64%
    21:00 +13°C° 0.5 mm 12 m/S 745 mmHg 67%
    22:00 +13°C° 0.5 mm 13 m/S 745 mmHg 69%
    23:00 +13°C° 0.5 mm 14 m/S 745 mmHg 71%

    26 Januar, Samstag

    Zeit Temperatur Niederschläge Wind Luftdruck Luftfeuchtigkeit
    00:00 +13°C° 0.3 mm 14 m/S 744 mmHg 69%
    01:00 +13°C° 0.3 mm 14 m/S 744 mmHg 68%
    02:00 +13°C° 0.3 mm 14 m/S 744 mmHg 66%
    03:00 +13°C° 0.6 mm 15 m/S 743 mmHg 67%
    04:00 +13°C° 0.6 mm 15 m/S 743 mmHg 68%
    05:00 +13°C° 0.6 mm 15 m/S 743 mmHg 69%
    06:00 +13°C° 0.7 mm 14 m/S 744 mmHg 69%
    07:00 +13°C° 0.7 mm 12 m/S 745 mmHg 70%
    08:00 +13°C° 0.7 mm 11 m/S 745 mmHg 71%
    09:00 +13°C° 0.2 mm 9 m/S 746 mmHg 70%
    10:00 +13°C° 0.2 mm 8 m/S 747 mmHg 69%
    11:00 +14°C° 0.2 mm 7 m/S 748 mmHg 67%
    12:00 +13°C° 0.2 mm 8 m/S 748 mmHg 67%
    13:00 +13°C° 0.2 mm 9 m/S 748 mmHg 68%
    14:00 +14°C° 0.2 mm 11 m/S 749 mmHg 68%
    15:00 +14°C° 0 mm 11 m/S 749 mmHg 68%
    16:00 +14°C° 0 mm 11 m/S 749 mmHg 68%
    17:00 +14°C° 0 mm 11 m/S 749 mmHg 69%
    18:00 +13°C° 0.1 mm 10 m/S 750 mmHg 69%
    19:00 +13°C° 0.1 mm 10 m/S 750 mmHg 68%
    20:00 +13°C° 0.1 mm 10 m/S 750 mmHg 68%
    21:00 +13°C° 0.3 mm 10 m/S 751 mmHg 70%
    22:00 +13°C° 0.3 mm 10 m/S 751 mmHg 71%
    23:00 +12°C° 0.3 mm 10 m/S 751 mmHg 72%

    27 Januar, Sonntag

    Zeit Temperatur Niederschläge Wind Luftdruck Luftfeuchtigkeit
    00:00 +12°C° 0.7 mm 10 m/S 751 mmHg 72%
    01:00 +12°C° 0.7 mm 10 m/S 751 mmHg 71%
    02:00 +12°C° 0.7 mm 9 m/S 751 mmHg 71%
    03:00 +12°C° 0.7 mm 9 m/S 750 mmHg 70%
    04:00 +12°C° 0.7 mm 9 m/S 750 mmHg 70%
    05:00 +12°C° 0.7 mm 9 m/S 750 mmHg 70%
    06:00 +12°C° 0.4 mm 9 m/S 750 mmHg 69%
    07:00 +12°C° 0.4 mm 8 m/S 750 mmHg 69%
    08:00 +12°C° 0.4 mm 8 m/S 750 mmHg 69%
    09:00 +12°C° 0.5 mm 8 m/S 750 mmHg 69%
    10:00 +12°C° 0.5 mm 8 m/S 751 mmHg 68%
    11:00 +12°C° 0.5 mm 7 m/S 751 mmHg 68%
    12:00 +12°C° 0.8 mm 7 m/S 751 mmHg 68%
    13:00 +13°C° 0.8 mm 6 m/S 750 mmHg 67%
    14:00 +13°C° 0.8 mm 5 m/S 750 mmHg 67%
    15:00 +13°C° 0.4 mm 5 m/S 750 mmHg 70%
    16:00 +13°C° 0.4 mm 6 m/S 751 mmHg 72%
    17:00 +12°C° 0.4 mm 7 m/S 751 mmHg 74%
    18:00 +13°C° 0.1 mm 6 m/S 751 mmHg 74%
    19:00 +13°C° 0.1 mm 6 m/S 752 mmHg 73%
    20:00 +13°C° 0.1 mm 6 m/S 752 mmHg 72%
    21:00 +13°C° 0 mm 5 m/S 752 mmHg 70%
    22:00 +13°C° 0 mm 5 m/S 753 mmHg 68%
    23:00 +13°C° 0 mm 5 m/S 753 mmHg 66%

    28 Januar, Montag

    Zeit Temperatur Niederschläge Wind Luftdruck Luftfeuchtigkeit
    00:00 +13°C° 0 mm 4 m/S 754 mmHg 65%
    01:00 +13°C° 0 mm 4 m/S 754 mmHg 64%
    02:00 +13°C° 0 mm 3 m/S 754 mmHg 63%
    03:00 +12°C° 0 mm 3 m/S 755 mmHg 63%
    04:00 +13°C° 0 mm 2 m/S 755 mmHg 62%
    05:00 +13°C° 0 mm 2 m/S 755 mmHg 62%
    06:00 +13°C° 0 mm 2 m/S 756 mmHg 62%
    07:00 +13°C° 0 mm 1 m/S 756 mmHg 62%
    08:00 +13°C° 0 mm 1 m/S 757 mmHg 61%
    09:00 +13°C° 0 mm 1 m/S 757 mmHg 61%
    10:00 +14°C° 0 mm 1 m/S 758 mmHg 61%
    11:00 +14°C° 0 mm 2 m/S 758 mmHg 60%
    12:00 +14°C° 0.1 mm 2 m/S 759 mmHg 60%
    13:00 +14°C° 0.1 mm 2 m/S 759 mmHg 59%
    14:00 +15°C° 0.1 mm 2 m/S 759 mmHg 59%
    15:00 +15°C° 0.1 mm 2 m/S 759 mmHg 60%
    16:00 +14°C° 0.1 mm 3 m/S 760 mmHg 60%
    17:00 +14°C° 0.1 mm 3 m/S 760 mmHg 61%
    18:00 +14°C° 0.1 mm 3 m/S 760 mmHg 61%
    19:00 +14°C° 0.1 mm 3 m/S 761 mmHg 61%
    20:00 +14°C° 0.1 mm 3 m/S 762 mmHg 61%
    21:00 +14°C° 0 mm 3 m/S 762 mmHg 61%
    22:00 +14°C° 0 mm 3 m/S 763 mmHg 60%
    23:00 +14°C° 0 mm 3 m/S 763 mmHg 60%
    Mehr zeigen